Regional Weather Roundup
Issued by NWS Upton, NY

Current Version | Previous Version | Text Only | Print | Product List | Glossary On
Versions: 1 2 3 4 5 6 7 8 9 10 11 12 13 14 15 16 17 18 19 20 21 22 23 24 25 26 27 28 29 30 31 32 33 34 35 36 37 38 39 40 41 42 43 44 45 46 47 48 49 50
000 ASUS41 KOKX 300408 RWROKX REGIONAL WEATHER ROUNDUP NATIONAL WEATHER SERVICE NEW YORK NY 1200 AM EDT SAT MAY 30 2015 NOTE: "FAIR" INDICATES FEW OR NO CLOUDS BELOW 12,000 FEET WITH NO SIGNIFICANT WEATHER AND/OR OBSTRUCTIONS TO VISIBILITY. NYZ071-072-176-178-NJZ106-104-300500- NEW YORK CITY METRO AREA CITY SKY/WX TMP DP RH WIND PRES REMARKS CENTRAL PARK PTCLDY 68 61 78 CALM 30.25F LAGUARDIA APRT MOCLDY 67 60 78 S8 30.22F KENNEDY INTL MOCLDY 64 60 87 S3 30.24F NEWARK/LIBERTY MOCLDY 68 61 78 SE3 30.22F BRNX BOT. GARD N/A 64 61 88 E1 30.23F TETERBORO PTCLDY 68 61 78 CALM 30.21F $$ NYZ177-179-078>081-300500- LONG ISLAND NEW YORK CITY SKY/WX TMP DP RH WIND PRES REMARKS FARMINGDALE PTCLDY 62 59 90 S3 30.24F ISLIP MOCLDY 62 59 90 S5 30.22F FOG SHIRLEY CLOUDY 60 58 92 S3 30.25S WESTHAMPTON FOG 58 57 97 CALM 30.26F VSB 1/2 MONTAUK POINT N/A 58 57 97 CALM 30.26F $$ NYZ052-065-067-300500- HUDSON VALLEY CITY SKY/WX TMP DP RH WIND PRES REMARKS WHITE PLAINS PTCLDY 62 58 86 CALM 30.23F NEWBURGH NOT AVBL MONTGOMERY PTCLDY 66 58 75 S6 30.22F POUGHKEEPSIE PTCLDY 68 58 70 S3 30.21S ALBANY MOCLDY 72 56 57 S13 30.17F $$ NJZ001-105-106-008-010-013-015-019>022-104-300500- NEW JERSEY CITY SKY/WX TMP DP RH WIND PRES REMARKS NEWARK/LIBERTY MOCLDY 68 61 78 SE3 30.22F TETERBORO PTCLDY 68 61 78 CALM 30.21F CALDWELL PTCLDY 66 57 72 CALM 30.24S MORRISTOWN PTCLDY 66 59 77 CALM 30.23S SOMERVILLE MOCLDY 67 58 72 CALM 30.21R SUSSEX MOCLDY 65 56 72 CALM 30.24F ANDOVER N/A 67 58 72 CALM 30.23S TRENTON PTCLDY 68 62 81 S8 30.21F MILLVILLE MOCLDY 69 64 84 VRB6 30.23F ATLANTIC CITY PTCLDY 67 62 84 S6 30.24S WRIGHTSTOWN MOCLDY 65 63 95 S8 30.20F TOMS RIVER PTCLDY N/A N/A N/A CALM 30.23F BELMAR PTCLDY 64 57 77 S6 30.23F $$ PAZ047>061-062-071-300500- EASTERN PENNSYLVANIA CITY SKY/WX TMP DP RH WIND PRES REMARKS PHILADELPHIA MOCLDY 72 62 71 S8 30.22F ALLENTOWN MOCLDY 74 65 73 S8 30.21S SCRANTON PTCLDY 72 61 68 CALM 30.19S $$ CTZ002-004>006-009-010-012-RIZ004-006-007-MAZ004-011-015-300500- SOUTHERN NEW ENGLAND IN CT CITY SKY/WX TMP DP RH WIND PRES REMARKS BRADLEY INTL MOCLDY 66 57 72 S7 30.23S HARTFORD PTCLDY 64 58 80 MISG 30.23F DANBURY PTCLDY 60 55 83 CALM 30.26S WTRBRY/OXFORD PTCLDY 61 54 77 CALM 30.26F BRIDGEPORT PTCLDY 64 59 83 CALM 30.24S MERIDEN PTCLDY 60 56 86 CALM 30.23F NEW HAVEN PTCLDY 59 57 93 CALM 30.24F CHESTER FAIR 59 57 94 CALM 30.26S GROTON FOG 58 56 93 SE3 30.24F VSB 1/4 WILLIMANTIC CLEAR 60 56 86 CALM 30.25F IN RI CITY SKY/WX TMP DP RH WIND PRES REMARKS PROVIDENCE MOCLDY 61 57 87 CALM 30.25F BLOCK ISLAND CLOUDY 57 54 88 S3 30.26S VSB 3/4 WESTERLY FOG 57 56 96 SE3 30.26S VSB 1/4 IN MA CITY SKY/WX TMP DP RH WIND PRES REMARKS BOSTON MOCLDY 61 57 87 CALM 30.24F WORCESTER PTCLDY 63 55 75 SW7 30.25F WESTFIELD PTCLDY 66 57 72 S9 30.22F PROVINCETOWN MOCLDY 59 55 88 S6 30.25S NANTUCKET FOG 59 57 93 S8 30.26S VSB 1/4 $$ ANZ330-335-338-340-345-350-353-355-300500- COASTAL MARINE OBSERVATIONS STATION/POSITION TIME SKY/WX TEMP WIND PRES VSBY WAVE AIR SEA DIR/SP/G HT/PER (UTC) (F) (DEG/KT/KT) (MB) (MI) (FT/S) NY HARB ENTRANCE 0350 63 61 180/ 8/ 10 1023.2 2/ 9 4S FIRE IS 0303 59 N/A 2/ 9 20S FIRE ISLAND 0350 61 59 190/ 8/ 8 1023.8 2/ 9 GREAT SOUTH BAY 0300 62 70 200/ 6/ 10 N/A 23SW MTP 0350 57 57 190/ 6/ 6 1024.0 2/ 9 HUDSON CANYON NOT AVBL KINGS POINT 0300 65 57 190/ 5/ 6 1023.5 CENTRAL LI SOUND 0300 61 60 140/ 4/ 6 N/A EASTERN LI SOUND 0300 55 90/ 4/ 4 N/A ROBBINS REEF 0300 63 170/ 10/ 11 1022.7 $$ >>>>>>>>>>>>>>>>>>>>>>>>>>>> KEY <<<<<<<<<<<<<<<<<<<<<<<<<<< > < > SKY/WX - SKY CONDITION/PRESENT WEATHER < > TMP - TEMPERATURE IN FAHRENHEIT < > DP - DEWPOINT IN FAHRENHEIT < > RH - RELATIVE HUMIDITY IN PERCENT < > WIND - DIRECTION AND SPEED IN MPH < > PRES - MEAN SEA LEVEL PRESSURE IN INCHES OF HG < > WCI - WIND CHILL INDEX < > VSB - VISIBILITY IN MILES < > HX - HEAT INDEX < > TC - TEMPERATURE IN CELSIUS < > VRB - VARIABLE WIND DIRECTION < > < >>>>>>>>>>>>>>>>>>>>>>>>>>>> KEY <<<<<<<<<<<<<<<<<<<<<<<<<<<

USA.gov is the U.S. government's official web portal to all federal, state and local government web resources and services.